Saipan, MP

2:50 PM ChST on April 23, 2018 (GMT +1000)
Saipan International

Weather History for PGSN - October, 2011

Change the Weather History Date:

Saturday, October 15, 2011

  Actual Average Record
Temperature  
Mean Temperature 80 °F -  
Max Temperature 86 °F 84 °F 89 °F (2016)
Min Temperature 75 °F 76 °F 71 °F (2000)
Cooling Degree Days 16    
Growing Degree Days 30 (Base 50)    
Moisture  
Dew Point 76 °F    
Average Humidity 89    
Maximum Humidity 100    
Minimum Humidity 77    
Precipitation  
Precipitation 0.69 in - - ()
Sea Level Pressure  
Sea Level Pressure 29.94 in    
Wind  
Wind Speed 6 mph (East)    
Max Wind Speed 10 mph    
Max Gust Speed -    
Visibility 9 miles    
Events Rain , Thunderstorm    
Averages and records for this station are not official NWS values.
T = Trace of Precipitation, MM = Missing Value Source: NWS Daily Summary

Daily Weather History Graph

Daily Weather History Graph

Search for Another Location

Airport or City:

Astronomy

Oct. 15, 2011 Rise Set
Actual Time 6:08 AM ChST 5:57 PM ChST
Civil Twilight 5:46 AM ChST 6:18 PM ChST
Nautical Twilight 5:21 AM ChST 6:43 PM ChST
Astronomical Twilight 4:57 AM ChST 7:08 PM ChST
Moon 8:00 PM ChST (10/15) 8:23 AM ChST (10/15)
Length of Visible Light 12h 31m
Length of Day
11h 48m
Waning Gibbous, 92% of the Moon is Illuminated
Oct 15
Waning Gibbous
Oct 20
Last Quarter
Oct 27
New
Nov 3
First Quarter
Nov 11
Full

Hourly Weather History & Observations

Time (ChST) Temp. Heat Index Dew Point Humidity Pressure Visibility Wind Dir Wind Speed Gust Speed Precip Events Conditions
12:24 AM 75.2 °F - 75.2 °F 100% 29.89 in 7.0 mi ENE 5.8 mph - 0.06 in Rain Light Rain
12:40 AM 77.0 °F - 75.2 °F 94% 29.88 in 10.0 mi ENE 5.8 mph - 0.06 in   Overcast
12:48 AM 78.8 °F - 77.0 °F 94% 29.89 in 2.5 mi ENE 5.8 mph - 0.12 in Rain Heavy Rain
12:54 AM 78.1 °F - 77.0 °F 96% 29.95 in 5.0 mi ENE 5.8 mph - 0.21 in Rain Light Rain
1:18 AM 78.8 °F - 75.2 °F 89% 29.88 in 10.0 mi East 5.8 mph - 0.02 in   Mostly Cloudy
1:33 AM 78.8 °F - 75.2 °F 89% 29.89 in 10.0 mi East 5.8 mph - 0.02 in   Mostly Cloudy
1:43 AM 78.8 °F - 77.0 °F 94% 29.88 in 10.0 mi East 5.8 mph - 0.02 in Thunderstorm Thunderstorm
1:54 AM 78.1 °F - 77.0 °F 96% 29.95 in 10.0 mi East 5.8 mph - 0.03 in Thunderstorm Thunderstorm
2:42 AM 77.0 °F - 75.2 °F 94% 29.87 in 5.0 mi NE 8.1 mph - 0.10 in   Partly Cloudy
2:54 AM 77.0 °F - 75.9 °F 96% 29.93 in 5.0 mi NE 8.1 mph - 0.14 in   Scattered Clouds
3:54 AM 75.9 °F - 75.0 °F 97% 29.94 in 8.0 mi North 4.6 mph - 0.07 in   Mostly Cloudy
4:54 AM 75.9 °F - 73.9 °F 94% 29.92 in 10.0 mi North 4.6 mph - 0.03 in   Scattered Clouds
5:54 AM 77.0 °F - 75.9 °F 96% 29.93 in 10.0 mi North - - 0.01 in   Partly Cloudy
6:54 AM 78.1 °F - 75.0 °F 90% 29.93 in 10.0 mi ENE 6.9 mph - N/A   Mostly Cloudy
7:54 AM 80.1 °F 85.8 °F 77.0 °F 90% 29.95 in 10.0 mi ENE 5.8 mph - N/A   Partly Cloudy
8:54 AM 82.0 °F 90.2 °F 77.0 °F 85% 29.96 in 10.0 mi ENE 8.1 mph - N/A   Partly Cloudy
9:54 AM 82.9 °F 92.8 °F 78.1 °F 85% 29.96 in 10.0 mi East 5.8 mph - N/A   Scattered Clouds
10:54 AM 84.0 °F 94.8 °F 78.1 °F 82% 29.96 in 10.0 mi East 8.1 mph - N/A   Scattered Clouds
11:54 AM 84.9 °F 97.5 °F 79.0 °F 82% 29.94 in 10.0 mi SE 6.9 mph - 0.01 in   Scattered Clouds
12:54 PM 84.9 °F 98.9 °F 80.1 °F 85% 29.93 in 10.0 mi SE 10.4 mph - 0.01 in   Mostly Cloudy
1:54 PM 86.0 °F 98.3 °F 78.1 °F 77% 29.91 in 10.0 mi East 9.2 mph - 0.00 in   Mostly Cloudy
2:54 PM 84.9 °F 95.3 °F 77.0 °F 77% 29.90 in 10.0 mi SSE 6.9 mph - N/A   Scattered Clouds
3:54 PM 82.9 °F 91.8 °F 77.0 °F 82% 29.92 in 10.0 mi SSE 5.8 mph - N/A   Scattered Clouds
4:54 PM 82.9 °F 90.2 °F 75.0 °F 77% 29.94 in 10.0 mi SSE 5.8 mph - N/A   Partly Cloudy
5:54 PM 82.0 °F 89.4 °F 75.9 °F 82% 29.95 in 10.0 mi Variable 5.8 mph - N/A   Mostly Cloudy
6:54 PM 82.0 °F 90.2 °F 77.0 °F 85% 29.96 in 10.0 mi SE 4.6 mph - N/A   Mostly Cloudy
7:54 PM 79.0 °F - 75.0 °F 88% 29.98 in 10.0 mi Variable 5.8 mph - N/A   Mostly Cloudy
8:54 PM 79.0 °F - 75.9 °F 90% 30.00 in 10.0 mi Variable 4.6 mph - 0.00 in Rain Light Rain
9:54 PM 77.0 °F - 75.9 °F 96% 30.01 in 10.0 mi Variable 5.8 mph - 0.18 in   Mostly Cloudy
10:54 PM 78.1 °F - 75.9 °F 93% 30.00 in 10.0 mi Variable 4.6 mph - 0.00 in Rain Light Rain
11:54 PM 79.0 °F - 75.9 °F 90% 30.01 in 10.0 mi Variable 5.8 mph - N/A   Overcast